www.pogodaiklimat.ru

Погода и климат >> Архив погоды >> Россия >> Томская область >> Томск


АРХИВ ПОГОДЫ в Томске

Время (UTC), дата Ветер
(напр.,м/с)
 
Видим.   Явления Облачность Т
(С)
Тd
(С)
f
(%)
Тe
(С)
Тes
(С)
Комфортность P
(гПа)
Po
(гПа)
Тmin
(С)
Tmax
(С)
R
(мм)
R24
(мм)
S
(см)
21 16.03 штиль 0 20 км 6/6 600 м
[Sc]
-8.1 -10.7 82 -9 -9 по сезону 1015.8 997.7
00 17.03 штиль 0 20 км слаб. снег 10/10 600 м
[Sc]
-8.1 -9.3 91 -9 -9 по сезону 1016.5 998.5 -9.0 72
03 17.03 штиль 0 20 км слаб. ливневой снег 10/10 480 м
[Cb cap]
-6.2 -8.4 84 -7 -7 по сезону 1017.5 999.6
06 17.03 Ю 1 20 км слаб. ливневой снег 10/10 600 м
[Cb cap]
-3.7 -8.6 69 -6 -6 по сезону 1018.7 1000.9
09 17.03 З 1 20 км слаб. ливневой снег 10/10 480 м
[Cb cap]
-3.1 -9.1 63 -5 -5 по сезону 1020.3 1002.5
12 17.03 Ю 1 20 км {ливн. осадки} 3/3 300 м
[Sc]
-5.7 -9.2 76 -8 -8 по сезону 1022.7 1004.8 -2.2 2
15 17.03 штиль 0 20 км ясно -8.5 -10.7 84 -9 -9 по сезону 1025.5 1007.3
18 17.03 штиль 0 20 км ясно -10.5 -11.7 91 -11 -11 по сезону 1027.7 1009.3
21 17.03 штиль 0 20 км ясно -12.8 -14.3 88 -13 -13 по сезону 1030.0 1011.4
00 18.03 штиль 0 2000 м дымка ясно -12.2 -13.5 90 -12 -12 по сезону 1031.9 1013.3 -13.8 73
03 18.03 Ю 1 2000 м дымка ясно -12.2 -13.6 89 -14 -11 прохладно 1034.1 1015.5
06 18.03 Ю 1 20 км 4/4 600 м
[Sc]
-5.4 -7.7 84 -8 -3 по сезону 1034.2 1016.0
09 18.03 Ю 1 20 км 10/10 420 м
[Sc]
-2.4 -8.8 61 -4 -4 по сезону 1033.5 1015.5
12 18.03 Ю 1 20 км 9/0
[Ac trans]
-2.5 -7.6 68 -4 -4 по сезону 1032.9 1015.0 -1.4
15 18.03 штиль 0 20 км 10/8 840 м
[Sc Ac und]
-4.4 -7.4 80 -5 -5 по сезону 1033.0 1014.9
18 18.03 штиль 0 20 км 10/0
[Ac und]
-6.5 -9.3 80 -7 -7 по сезону 1032.3 1014.1
21 18.03 Ю 1 20 км 10/0
[Ac und]
-6.8 -9.6 80 -9 -9 по сезону 1031.6 1013.4
00 19.03 Ю 1 20 км 8/0
[Ac trans]
-8.6 -10.2 88 -11 -11 по сезону 1031.3 1012.9 -9.0 73
03 19.03 Ю 1 20 км 10/0
[Ac trans]
-7.2 -10.3 78 -9 -8 по сезону 1031.1 1012.9
06 19.03 штиль 0 20 км 10/0
[As trans]
-2.8 -9.2 61 -3 0 по сезону 1030.8 1012.9
09 19.03 Ю 1 20 км слаб. снег 10/8 300 м
[Frnb As op]
-2.2 -6.0 75 -4 -4 по сезону 1030.1 1012.2
12 19.03 ЮЗ 1 20 км слаб. снег 10/8 300 м
[Frnb As op]
-3.2 -5.2 86 -5 -5 по сезону 1030.5 1012.6 -2.0 0.4
15 19.03 штиль 0 20 км {снег} 10/10 330 м
[Frnb Ns]
-4.4 -5.2 94 -6 -6 по сезону 1031.5 1013.4
18 19.03 штиль 0 20 км слаб. снег 10/8 300 м
[Frnb As trans]
-4.3 -5.1 94 -5 -5 по сезону 1032.0 1013.9
21 19.03 штиль 0 20 км слаб. снег 10/8 300 м
[Frnb As op]
-4.3 -5.0 95 -5 -5 тепло 1032.5 1014.4
00 20.03 Ю 1 20 км слаб. снег 10/8 300 м
[Frnb As op]
-4.7 -5.3 96 -7 -7 тепло 1033.2 1015.1 -4.7 0.4 72
03 20.03 штиль 0 20 км слаб. ливневой снег 10/10 480 м
[Cb cap]
-3.5 -4.7 91 -5 -5 по сезону 1034.4 1016.4 -4.7
06 20.03 Ю 1 20 км {ливн. осадки, снег} 10/10 480 м
[Sc]
-1.6 -6.9 67 -3 -3 по сезону 1034.4 1016.5
09 20.03 штиль 0 20 км слаб. снег 10/10 700 м
[Sc]
-1.2 -4.6 78 -2 -2 по сезону 1033.9 1016.0
12 20.03 штиль 0 20 км {снег} 3/3 600 м
[Sc]
-1.6 -6.1 71 -2 -2 по сезону 1033.7 1015.8 -0.5 0.0
15 20.03 ЮВ 1 20 км ясно -4.0 -7.4 77 -6 -6 по сезону 1033.9 1015.8
18 20.03 Ю 1 20 км 8/8 600 м
[Sc]
-5.6 -8.0 83 -8 -8 по сезону 1033.0 1014.9
21 20.03 Ю 1 20 км 3/3 600 м
[Sc]
-6.0 -8.8 81 -8 -8 по сезону 1032.5 1014.3
00 21.03 штиль 0 20 км 4/0
[Ci fib]
-7.8 -9.8 86 -8 -8 по сезону 1032.5 1014.2 -7.8 72
03 21.03 Ю 1 20 км 3/0
[Ci fib]
-5.1 -9.7 70 -7 -4 по сезону 1032.7 1014.6 -8.5
06 21.03 Ю 1 20 км 1/0
[Ci fib]
+3.1 -9.9 38 +2 +11 опасность
простуды
1031.4 1013.8
09 21.03 Ю 1 20 км 1/0
[Ci fib]
+5.3 -8.5 36 +5 +10 тепло 1030.0 1012.6
12 21.03 штиль 0 20 км ясно +0.7 -7.0 56 0 0 по сезону 1029.5 1011.8 +5.6
15 21.03 штиль 0 20 км ясно -3.1 -7.6 71 -4 -4 по сезону 1028.7 1010.8
18 21.03 штиль 0 20 км ясно -4.8 -8.4 76 -6 -6 по сезону 1027.3 1009.3
21 21.03 штиль 0 20 км ясно -7.0 -9.4 83 -8 -8 по сезону 1025.6 1007.5
00 22.03 штиль 0 20 км 3/0
[Ci fib]
-7.7 -9.7 86 -8 -8 по сезону 1024.6 1006.4 -7.7 71
03 22.03 Ю 1 20 км 8/0
[Ci fib]
-3.6 -8.9 67 -6 -2 по сезону 1023.3 1005.4 -8.4
06 22.03 Ю 1 20 км 10/0
[Cs]
+3.6 -7.8 43 +3 +10 тепло 1021.1 1003.8
09 22.03 Ю 1 20 км 10/0
[Ci fib]
+5.9 -6.9 39 +6 +10 тепло 1020.1 1002.9
12 22.03 штиль 0 20 км 10/0
[Ci fib]
+2.0 -6.3 54 +2 +2 тепло 1020.2 1002.8 +5.9
15 22.03 Ю 1 20 км 10/0
[Ci fib]
-1.3 -7.3 64 -3 -3 по сезону 1020.8 1003.1
18 22.03 штиль 0 20 км 8/0
[Ci fib]
-3.0 -7.5 71 -4 -4 по сезону 1020.7 1003.0
21 22.03 штиль 0 20 км 10/6 600 м
[Sc Ac und]
-2.0 -7.0 69 -3 -3 тепло 1020.2 1002.5
00 23.03 штиль 0 20 км 8/0
[Ac trans]
-3.2 -7.2 74 -4 -4 тепло 1020.6 1002.8 -3.7 70
03 23.03 штиль 0 20 км 8/0
[Ac trans]
-0.6 -7.0 62 -1 +1 тепло 1020.9 1003.3
06 23.03 Ю 1 20 км 3/0
[Ci fib]
+3.8 -6.1 48 +3 +11 опасность
простуды
1020.1 1002.8
09 23.03 Ю 1 20 км 8/0
[Ac trans]
+4.3 -5.4 49 +4 +6 тепло 1019.3 1002.0
12 23.03 штиль 0 20 км 8/0
[Ac trans]
+2.0 -3.6 66 +1 +1 по сезону 1018.8 1001.4 +5.4
15 23.03 штиль 0 20 км 8/0
[Ac trans]
-1.1 -3.9 81 -2 -2 по сезону 1018.8 1001.2
18 23.03 штиль 0 20 км 3/0
[Ci fib]
-2.5 -4.4 87 -4 -4 по сезону 1017.8 1000.1

 

Местоположение метеостанции Томск (Томская область, Россия): широта 56.50 долгота 84.92 высота над уровнем моря 139 м.

В архиве по умолчанию представлена погода в Томске за последнюю неделю. Архивные данные за месяц целиком и за предыдущие месяцы, начиная с января 2011 года, Вы можете получить, выбрав интересующий диапазон дат из раскрывающегося списка и нажав кнопку "Ввод!".


*Определитесь, кто Вы:
робот инопланетянин человек

Внимание! Время в таблицах - всемирное. Для получения местного времени необходимо прибавить поправку, которая равна 7 ч.

Смотрите также архив погоды в соседних городах и на ближайших метеорологических станциях:

Погода в Тайге (Кемеровская область, Россия) (64 км)
Погода в Кожевниково (Томская область, Россия) (65 км)
Погода в Юрге (Кемеровская область, Россия) (87 км)
Погода в Болотном (Новосибирская область, Россия) (98 км)
Погода в Яе (Кемеровская область, Россия) (101 км)
Погода в Первомайском (Томская область, Россия) (101 км)
Погода в Барзасе (Кемеровская область, Россия) (122 км)
Погода в Молчаново (Томская область, Россия) (139 км)
Погода в Батурино (Томская область, Россия) (143 км)
Погода в Топках (Кемеровская область, Россия) (143 км)

Пояснения к столбцам:

Ветер - указаны скорость ветра в м/с - средняя за 10 мин, порывы в срок и между сроками (в фигурных скобках) и направление, откуда дует ветер: С - северный, СВ - северо-восточный, В - восточный, ЮВ - юго-восточный, Ю - южный, ЮЗ - юго-западный, З - западный, СЗ - северо-западный.
Видимость - горизонтальная дальность видимости в метрах или километрах. При видимости от 1 до 10 км при отсутствии осадков обычно наблюдается дымка, при ухудшении видимости до 1 км и менее - туман. В сухую погоду видимость может ухудшаться дымом, пылью или мглою.
Явления - указаны атмосферные явления, наблюдавшиеся в срок или в последний час перед сроком; фигурными скобками обозначены явления, наблюдавшиеся между сроками (за 1-3 часа до срока); квадратными скобками обозначены град или гололедные отложения с указанием их диаметра в мм.
Облачность - указаны через наклонную черту общая и нижняя облачность в баллах и высота нижней границы облаков в метрах; квадратными скобками обозначены формы облаков: Ci - перистые, Cs - перисто-слоистые, Cc - перисто-кучевые, Ac - высококучевые, As - высокослоистые, Sc - слоисто-кучевые, Ns - слоисто-дождевые, Cu - кучевые, Cb - кучево-дождевые. Подробнее классификацию облаков см. в Атласе облаков (PDF).
T - Температура воздуха - температура, измеренная на высоте 2 м над землей.
Td - Температура точки росы - температура, при понижении до которой содержащийся в воздухе водяной пар достигнет насыщения.
f - Относительная влажность воздуха - влажноcть воздуха, измеренная на высоте 2 м над землей.
Te - Эффективная температура - температура, которую ощущает одетый по сезону человек в тени. Характеристика душности погоды. При расчете учитывается влияние влажности воздуха и скорости ветра на теплоощущения человека.
Tes - Эффективная температура на солнце - температура, которую ощущает человек, с поправкой на солнечный нагрев. Характеристика знойности погоды. Зависит от высоты солнца над горизонтом, облачности и скорости ветра. Ночью, в пасмурную погоду, а также при ветре 12 м/с и более поправка равна нулю.
P - Атмосферное давление - приведенное к уровню моря атмосферное давление.
Po - Атмосферное давление - измеренное на уровне метеостанции атмосферное давление.
Tmin - Минимальная температура - минимум температуры воздуха на высоте 2 м над землей.
Tmax - Максимальная температура - максимум температуры воздуха на высоте 2 м над землей.
R - Количество осадков - Количество выпавших осадков за период времени, мм. При наведении курсора мыши на число - период времени, за который выпало указанное количество осадков.
R24 - Количество осадков - Количество выпавших осадков за 24 часа, мм.
S - Снежный покров - Высота снежного покрова, см. При наведении курсора мыши на число - состояние снежного покрова и степень покрытия местности в баллах.